Change the Weather History Date:

Friday, February 8, 2013

  Actual Average Record
Temperature  
Mean Temperature 41 °F -  
Max Temperature 43 °F - - ()
Min Temperature 39 °F - - ()
Degree Days  
Heating Degree Days 24    
Moisture  
Dew Point 38 °F    
Average Humidity 84    
Maximum Humidity 88    
Minimum Humidity 76    
Precipitation  
Precipitation 0.00 in - - ()
Sea Level Pressure  
Sea Level Pressure 30.24 in    
Wind  
Wind Speed 8 mph ()    
Max Wind Speed 14 mph    
Max Gust Speed -    
T = Trace of Precipitation, MM = Missing Value Source: Averaged Metar Reports

Daily Weather History Graph

Daily Weather History Graph

Search for Another Location

Airport or City:

Trip Planner

Search our weather history database for the weather conditions in past years. The results will help you decide how hot, cold, wet, or windy it might be!

Date:

Astronomy

Feb. 08, 2013 Rise Set
Actual Time 7:36 AM PST 5:25 PM PST
Civil Twilight 7:03 AM PST 5:58 PM PST
Nautical Twilight 6:25 AM PST 6:36 PM PST
Astronomical Twilight 5:48 AM PST 7:13 PM PST
Moon 6:14 AM PST (2/8) 4:03 PM PST (2/8)
Length of Visible Light 10h 55m
Length of Day
9h 48m
Waning Crescent, 3% of the Moon is Illuminated
Feb 8
Waning Crescent
Feb 9
New
Feb 17
First Quarter
Feb 25
Full
Mar 4
Last Quarter

Hourly Weather History & Observations

Time (PST) Temp. Windchill Dew Point Humidity Pressure Visibility Wind Dir Wind Speed Gust Speed Precip Events Conditions
12:00 AM 40.8 °F 33.7 °F 36.3 °F 84% 30.18 in - WSW 12.7 mph - N/A   Unknown
1:00 AM 41.5 °F 35.0 °F 37.4 °F 85% 30.19 in - West 11.5 mph - N/A   Unknown
2:00 AM 42.4 °F 35.7 °F 38.8 °F 87% 30.20 in - West 12.7 mph - N/A   Unknown
3:00 AM 42.6 °F 35.6 °F 38.5 °F 85% 30.21 in - West 13.8 mph - N/A   Unknown
4:00 AM 42 °F - 38 °F 79% 30.21 in - WSW 11.5 mph - -  
4:00 AM 41.9 °F 35.4 °F 37.8 °F 85% 30.21 in - WSW 11.5 mph - N/A   Unknown
5:00 AM 42.6 °F 36.3 °F 37.9 °F 83% 30.22 in - West 11.5 mph - N/A   Unknown
6:00 AM 42.6 °F 36.3 °F 38.8 °F 86% 30.23 in - WNW 11.5 mph - N/A   Unknown
7:00 AM 42.4 °F 35.7 °F 38.5 °F 86% 30.23 in - WNW 12.7 mph - N/A   Unknown
8:00 AM 42.1 °F 36.6 °F 37.6 °F 84% 30.25 in - West 9.2 mph - N/A   Unknown
9:00 AM 41.9 °F 36.9 °F 37.2 °F 83% 30.26 in - West 8.1 mph - N/A   Unknown
10:00 AM 42 °F - 37 °F 76% 30.26 in - WSW 6.9 mph - -  
10:00 AM 42.3 °F 37.9 °F 37.0 °F 82% 30.26 in - WSW 6.9 mph - N/A   Unknown
11:00 AM 43.3 °F 39.9 °F 37.4 °F 80% 30.27 in - WNW 5.8 mph - N/A   Unknown
12:00 PM 43.5 °F 39.4 °F 36.7 °F 77% 30.27 in - WNW 6.9 mph - N/A   Unknown
1:00 PM 43.7 °F 39.1 °F 37.6 °F 79% 30.27 in - WNW 8.1 mph - N/A   Unknown
2:00 PM 42.8 °F 41.1 °F 38.3 °F 84% 30.26 in - ENE 3.5 mph - N/A   Unknown
3:00 PM 42.3 °F 40.5 °F 38.1 °F 85% 30.25 in - ESE 3.5 mph - N/A   Unknown
4:00 PM 42 °F - 38 °F 81% 30.25 in - ESE 2.3 mph - -  
4:00 PM 42.3 °F - 38.1 °F 85% 30.25 in - ESE 2.3 mph - N/A   Unknown
5:00 PM 42.3 °F - 38.1 °F 85% 30.25 in - SE 2.3 mph - N/A   Unknown
6:00 PM 41.4 °F - 37.6 °F 86% 30.25 in - SE 2.3 mph - N/A   Unknown
7:00 PM 41.5 °F - 37.8 °F 86% 30.25 in - Calm Calm - N/A   Unknown
8:00 PM 41.4 °F 39.4 °F 38.1 °F 88% 30.24 in - South 3.5 mph - N/A   Unknown
9:00 PM 40.6 °F 38.6 °F 37.4 °F 88% 30.25 in - SW 3.5 mph - N/A   Unknown
10:00 PM 40 °F - 36 °F 82% 30.24 in - South 3.5 mph - -  
10:00 PM 39.7 °F 37.6 °F 36.5 °F 88% 30.24 in - South 3.5 mph - N/A   Unknown
11:00 PM 40.6 °F - 36.7 °F 86% 30.25 in - WSW 1.2 mph - N/A   Unknown